This is the latest recevied weather packets stored in our database for station/object CT1ETE-13. If no packets are shown the sender has not sent any weather packets the latest 10 day(s).
| Time | Temp. | Humidity | Pressure | Rain* | Wind** | Luminosity | Snow |
|---|---|---|---|---|---|---|---|
| 1787827043 | 16.11° C | 85% | 1009.6 hPa | 0 mm | - | 1463 W/m² | - |
| 1787826143 | 15° C | 83% | 1009.3 hPa | 0 mm | - | 1470 W/m² | - |
| 1787825243 | 15° C | 75% | 1009.6 hPa | 0 mm | - | 1470 W/m² | - |
| 1787824343 | 14.44° C | 67% | 1009.5 hPa | 0.51 mm | - | 1475 W/m² | - |
| 1787823443 | 14.44° C | 65% | 1009.3 hPa | 0.51 mm | - | 1478 W/m² | - |
| 1787822544 | 13.89° C | 65% | 1008.7 hPa | 2.29 mm | - | 1480 W/m² | - |
| 1787821643 | 13.89° C | 65% | 1008.4 hPa | 3.3 mm | - | 1482 W/m² | - |
| 1787820754 | 13.89° C | 66% | 1008.5 hPa | 3.56 mm | - | 1484 W/m² | - |
| 1787819847 | 13.33° C | 67% | 1008.5 hPa | 3.56 mm | - | 1485 W/m² | - |
| 1787819019 | 13.89° C | 67% | 1008.9 hPa | 1.78 mm | - | 1484 W/m² | - |
| 1787818108 | 13.89° C | 66% | 1008.8 hPa | 0.76 mm | - | 1484 W/m² | - |
| 1787817215 | 13.89° C | 66% | 1008.3 hPa | 0.51 mm | - | 1484 W/m² | - |
| 1787816245 | 13.33° C | 65% | 1008.6 hPa | 1.52 mm | - | 1482 W/m² | - |
| 1787815354 | 13.33° C | 65% | 1008.6 hPa | 1.52 mm | - | 1484 W/m² | - |
| 1787814443 | 13.33° C | 67% | 1008.9 hPa | 1.52 mm | - | 1489 W/m² | - |
| 1787813549 | 12.78° C | 68% | 1009 hPa | 1.78 mm | - | 1489 W/m² | - |
| 1787812704 | 12.78° C | 68% | 1008.9 hPa | 0.76 mm | - | 1491 W/m² | - |
| 1787811739 | 12.78° C | 68% | 1008.8 hPa | 0.76 mm | - | 1491 W/m² | - |
| 1787810837 | 12.78° C | 68% | 1008.6 hPa | 2.29 mm | - | 1491 W/m² | - |
| 1787809937 | 12.78° C | 70% | 1008.7 hPa | 2.79 mm | - | 1491 W/m² | - |
| 1787809037 | 12.78° C | 71% | 1009 hPa | 4.06 mm | - | 1492 W/m² | - |
| 1787808136 | 12.78° C | 73% | 1009.2 hPa | 4.57 mm | - | 1491 W/m² | - |
| 1787807235 | 12.78° C | 73% | 1009 hPa | 6.1 mm | - | 1491 W/m² | - |
| 1787806333 | 12.78° C | 76% | 1009 hPa | 5.08 mm | - | 1491 W/m² | - |
| 1787805431 | 12.78° C | 79% | 1009 hPa | 4.06 mm | - | 1492 W/m² | - |
* Rain latest hour (hover to see other rain measurements)
** Current wind speed in m/s (hover to see current wind gust speed)